[[{"header":{"parameterUnit":"m.s-1","parameterCategory":1,"la1":30.2991,"la2":30.254,"lo1":-89.0895,"lo2":-89.0444,"dy":0.0017,"dx":0.0017,"nx":28,"ny":28,"refTime":"2024-05-02T09:00:00:Z","depth":0,"parameterNumber":2,"parameterNumberName":"U-component_of_WINDS"},"data":[0,0,0,0,0,0,0,0,0,0,0,0,0,0,0,0,0,0,0,0,0,0,0,0,0,0,0,0,0,0,0,0,0,0,0,0,0,0,0,0,0,0,0,0,0,0,0,0,0,0,0,0,0,0,0,0,0,0,-4.5273,-4.5274,0,-4.5424,-4.5426,-4.5428,-4.5433,-4.5431,-4.543,-4.5428,-4.5581,-4.5587,-4.5592,0,0,0,0,0,0,0,0,0,0,0,0,0,-4.4988,-4.4993,-4.5273,-4.5275,-4.5276,-4.5424,-4.5426,-4.5428,-4.5434,-4.5431,-4.5429,-4.5427,-4.5579,-4.5586,-4.5593,0,0,0,0,0,0,0,0,0,0,0,0,0,-4.5123,-4.4995,-4.5272,-4.5297,-4.5301,-4.5424,-4.5426,-4.5429,-4.5434,-4.5431,-4.5429,-4.5426,-4.5577,-4.5585,-4.5594,-4.5702,0,0,-4.562,-4.5624,0,0,0,0,0,0,0,0,-4.5115,-4.5133,-4.5292,-4.5296,-4.53,-4.5407,-4.5382,-4.552,-4.5435,-4.5383,-4.5428,-4.5425,-4.5525,-4.5538,-4.5572,-4.5709,-4.5716,-4.5621,-4.5626,-4.563,-4.5633,0,0,0,0,0,0,0,-4.5106,-4.5126,-4.5333,-4.5294,-4.5299,-4.53,-4.5317,-4.5408,-4.5468,-4.5388,-4.5388,-4.5406,-4.5527,-4.5564,-4.5576,-4.5718,-4.5621,-4.5629,-4.5634,-4.5637,-4.5952,-4.5955,0,0,0,0,0,0,-4.5091,-4.5119,-4.5328,-4.5337,-4.5199,-4.5308,-4.5326,-4.5375,-4.5467,-4.5478,-4.5409,-4.5406,-4.5551,-4.5566,-4.5581,-4.5714,-4.563,-4.5638,-4.5643,-4.5949,-4.5953,-4.5956,0,0,0,0,0,0,-4.5085,-4.511,-4.5322,-4.5228,-4.5255,-4.5316,-4.5371,-4.538,-4.5417,-4.5483,-4.5493,-4.5435,-4.5549,-4.5569,-4.5672,-4.5719,-4.5642,-4.565,-4.5945,-4.595,-4.5955,-4.598,0,0,0,0,0,0,-4.5077,-4.5108,-4.5149,-4.5229,-4.526,-4.541,-4.5374,-4.5385,-4.5432,-4.543,-4.5511,-4.5521,-4.5548,-4.5659,-4.5681,-4.573,-4.5657,-4.5941,-4.5948,-4.5953,-4.5975,-4.5985,-4.5993,0,0,0,0,0,-4.5067,-4.515,-4.5151,-4.5176,-4.5313,-4.5413,-4.543,-4.5461,-4.5436,-4.5478,-4.5521,-4.5519,-4.5712,-4.567,-4.5694,-4.5747,-4.5938,-4.5946,-4.5953,-4.5971,-4.5983,-4.5993,0,0,0,0,0,0,-4.5072,-4.516,-4.5163,-4.5274,-4.5336,-4.5413,-4.5467,-4.5472,-4.5542,-4.5537,-4.5572,-4.559,-4.5692,-4.573,-4.5682,-4.5857,-4.5822,-4.5834,-4.5828,-4.584,-4.5849,-4.5836,-4.5664,0,0,0,0,0,-4.5086,-4.516,-4.5233,-4.5324,-4.5355,-4.5406,-4.545,-4.5469,-4.5534,-4.556,-4.561,-4.5673,-4.5748,-4.5796,-4.5869,-4.5982,-4.5999,-4.603,-4.6039,-4.6046,-4.6056,-4.6119,-4.6134,-4.598,-4.598,-4.598,0,0,-4.5116,-4.5174,-4.5218,-4.5327,-4.5377,-4.5452,-4.5428,-4.5508,-4.5565,-4.5572,-4.5672,-4.5712,-4.5784,-4.5893,-4.5944,-4.5928,-4.6103,-4.6055,-4.6061,-4.6066,-4.6128,-4.6143,-4.6155,-4.5985,-4.5984,-4.5983,0,0,-4.5208,-4.526,-4.5341,-4.5393,-4.5469,-4.5503,-4.5523,-4.5601,-4.5627,-4.5729,-4.5737,-4.5805,-4.5933,-4.5984,-4.6027,-4.6143,-4.6144,-4.6166,-4.6213,-4.6274,-4.6286,-4.6297,-4.6338,-4.6352,-4.6176,-4.6176,-4.6176,0,-4.5235,-4.5349,-4.5382,-4.5463,-4.5511,-4.5524,-4.5607,-4.5655,-4.5751,-4.5784,-4.5766,-4.5928,-4.5978,-4.6099,-4.6128,-4.6162,-4.6186,-4.6155,-4.6282,-4.6293,-4.6304,-4.6343,-4.6358,-4.6178,-4.6178,-4.6177,-4.6177,0,-4.5378,-4.5458,-4.5515,-4.5608,-4.5663,-4.5745,-4.579,-4.5842,-4.5857,-4.5893,-4.5997,-4.6058,-4.6143,-4.6174,-4.6188,-4.6298,-4.6286,-4.6275,-4.624,-4.632,-4.6357,-4.6373,-4.6181,-4.618,-4.618,-4.6179,0,0,-4.5475,-4.5588,-4.5609,-4.5652,-4.5739,-4.5801,-4.5884,-4.5969,-4.6012,-4.6079,-4.6149,-4.6259,-4.625,-4.6299,-4.632,-4.6374,-4.6462,-4.6356,-4.6359,-4.6373,-4.6587,-4.6593,-4.661,-4.6464,-4.6467,-4.647,-4.658,0,-4.5576,-4.5724,-4.5757,-4.5884,-4.5958,-4.5973,-4.6045,-4.6106,-4.6143,-4.6211,-4.6252,-4.6329,-4.6311,-4.6341,-4.6396,-4.644,-4.6505,-4.6433,-4.6529,-4.6532,-4.6508,-4.663,-4.6637,-4.6738,-4.6595,-4.6598,-4.66,0,-4.5712,-4.5784,-4.5918,-4.5998,-4.603,-4.6094,-4.6176,-4.6241,-4.6312,-4.6335,-4.6391,-4.6407,-4.6494,-4.6458,-4.6579,-4.6529,-4.6571,-4.6599,-4.6604,-4.6612,-4.6569,-4.664,-4.6771,-4.6786,-4.6623,-4.6621,-4.662,0,-4.5768,-4.5898,-4.5996,-4.6033,-4.6128,-4.6173,-4.6214,-4.6283,-4.6332,-4.6404,-4.6436,-4.6517,-4.656,-4.6622,-4.666,-4.663,-4.6778,-4.6744,-4.6799,-4.6798,-4.6827,-4.6825,-4.6965,-4.6858,-4.6857,-4.6857,-4.6857,0,-4.5876,-4.5958,-4.6023,-4.6082,-4.6175,-4.6213,-4.6304,-4.6345,-4.6407,-4.6475,-4.6493,-4.6557,-4.6603,-4.6674,-4.6704,-4.68,-4.682,-4.684,-4.6847,-4.6838,-4.6835,-4.6864,-4.6857,-4.6861,-4.686,-4.686,-4.6859,0,-4.5953,-4.6,-4.6107,-4.6189,-4.6212,-4.6276,-4.6346,-4.6405,-4.6444,-4.653,-4.6553,-4.6613,-4.6697,-4.6742,-4.6847,-4.6867,-4.6974,-4.6978,-4.695,-4.6953,-4.7004,-4.6998,-4.7167,-4.7191,-4.7069,-4.707,-4.7071,0,-4.6018,-4.6081,-4.6171,-4.6218,-4.6261,-4.6337,-4.6388,-4.643,-4.6483,-4.6569,-4.6618,-4.6704,-4.6774,-4.6908,-4.6961,-4.7042,-4.7046,-4.71,-4.7058,-4.7047,-4.7046,-4.7041,-4.7047,-4.7106,-4.7108,-4.7108,-4.7109,0,-4.6128,-4.6149,-4.6222,-4.6304,-4.6365,-4.6431,-4.6497,-4.6535,-4.6587,-4.6646,-4.6733,-4.6787,-4.6896,-4.698,-4.7066,-4.7109,-4.7118,-4.7123,-4.7139,-4.7129,-4.711,-4.712,-4.6968,-4.7118,-4.7117,-4.7116,-4.7116,-4.7115,-4.62,-4.6257,-4.633,-4.6411,-4.6465,-4.6527,-4.6587,-4.6634,-4.6707,-4.6799,-4.6819,-4.6911,-4.6982,-4.7098,-4.7144,-4.7217,-4.7206,-4.723,-4.7236,-4.7241,-4.7243,-4.7101,-4.7233,-4.7233,-4.7232,-4.7232,-4.7232,0,-4.631,-4.6358,-4.6433,-4.6525,-4.6589,-4.6594,-4.6668,-4.6721,-4.6802,-4.6868,-4.6938,-4.7038,-4.7121,-4.7182,-4.7267,-4.7313,-4.732,-4.7334,-4.733,-4.734,-4.7248,-4.7225,-4.7327,-4.7327,-4.7327,-4.7327,-4.7327,-4.7327,-4.6374,-4.6472,-4.6501,-4.6626,-4.6674,-4.6764,-4.6806,-4.6863,-4.6916,-4.7028,-4.7097,-4.7137,-4.7202,-4.7292,-4.7368,-4.7384,-4.7414,-4.7428,-4.7444,-4.7356,-4.7346,-4.7336,-4.7314,-4.7434,-4.7434,-4.7529,-4.753,-4.7531]},{"header":{"parameterUnit":"m.s-1","parameterCategory":1,"la1":30.2991,"la2":30.254,"lo1":-89.0895,"lo2":-89.0444,"dy":0.0017,"dx":0.0017,"nx":28,"ny":28,"refTime":"2024-05-02T09:00:00:Z","depth":0,"parameterNumber":3,"parameterNumberName":"V-component_of_WINDS"},"data":[0,0,0,0,0,0,0,0,0,0,0,0,0,0,0,0,0,0,0,0,0,0,0,0,0,0,0,0,0,0,0,0,0,0,0,0,0,0,0,0,0,0,0,0,0,0,0,0,0,0,0,0,0,0,0,0,0,0,4.4132,4.4133,0,4.4162,4.4162,4.4163,4.4147,4.4146,4.4145,4.4144,4.4172,4.4173,4.4175,0,0,0,0,0,0,0,0,0,0,0,0,0,4.4061,4.4062,4.4132,4.4133,4.4133,4.4162,4.4162,4.4163,4.4147,4.4146,4.4145,4.4144,4.4171,4.4173,4.4175,0,0,0,0,0,0,0,0,0,0,0,0,0,4.4091,4.4063,4.4132,4.4129,4.4129,4.4162,4.4162,4.4163,4.4147,4.4146,4.4145,4.4143,4.4171,4.4173,4.4175,4.4213,0,0,4.4182,4.4183,0,0,0,0,0,0,0,0,4.4089,4.4094,4.4129,4.4129,4.4129,4.4149,4.4147,4.4179,4.4147,4.414,4.4144,4.4143,4.4165,4.4168,4.4176,4.4214,4.4215,4.4182,4.4184,4.4185,4.4185,0,0,0,0,0,0,0,4.4087,4.4092,4.4144,4.4129,4.4129,4.4125,4.4128,4.4153,4.4159,4.414,4.4139,4.4143,4.4165,4.4174,4.4176,4.4216,4.4182,4.4184,4.4186,4.4186,4.4289,4.429,0,0,0,0,0,0,4.4086,4.4091,4.4143,4.4145,4.4106,4.4127,4.4131,4.4144,4.4159,4.416,4.4144,4.4142,4.4171,4.4174,4.4177,4.4225,4.4185,4.4187,4.4188,4.4288,4.4289,4.4291,0,0,0,0,0,0,4.4084,4.409,4.4142,4.4118,4.4124,4.413,4.4145,4.4145,4.4154,4.4161,4.4162,4.4152,4.417,4.4174,4.4205,4.4225,4.4188,4.419,4.4286,4.4288,4.429,4.4318,0,0,0,0,0,0,4.4082,4.409,4.4104,4.4118,4.4125,4.4169,4.4146,4.4147,4.4158,4.4156,4.4169,4.417,4.4169,4.4202,4.4207,4.4228,4.4191,4.4284,4.4287,4.4289,4.4315,4.432,4.4325,0,0,0,0,0,4.408,4.411,4.4105,4.4112,4.4143,4.417,4.4174,4.4173,4.416,4.4175,4.418,4.417,4.4222,4.4205,4.4211,4.4232,4.4283,4.4286,4.4289,4.4313,4.4319,4.4325,0,0,0,0,0,0,4.4097,4.4111,4.4107,4.4142,4.4155,4.4168,4.4186,4.418,4.4197,4.4194,4.4191,4.4194,4.4227,4.4232,4.4213,4.4271,4.425,4.4255,4.4266,4.4272,4.4277,4.4276,4.4193,0,0,0,0,0,4.4105,4.4126,4.4138,4.4168,4.4175,4.418,4.4191,4.419,4.4203,4.4208,4.4215,4.4228,4.4247,4.426,4.4278,4.4316,4.4319,4.4333,4.4338,4.4342,4.4347,4.4369,4.4376,4.4301,4.4301,4.4301,0,0,4.4121,4.4132,4.4145,4.4172,4.4182,4.4204,4.4184,4.4208,4.4224,4.4211,4.4242,4.4247,4.4261,4.4296,4.4312,4.4302,4.4368,4.4346,4.435,4.4352,4.4373,4.438,4.4386,4.4303,4.4303,4.4303,0,0,4.4164,4.4173,4.4201,4.4212,4.4228,4.4232,4.4238,4.4252,4.4256,4.4287,4.4278,4.4297,4.433,4.4341,4.4351,4.44,4.4392,4.4406,4.4433,4.4455,4.4461,4.4466,4.4485,4.4492,4.441,4.441,4.441,0,4.4182,4.4216,4.4215,4.4241,4.4254,4.4244,4.4273,4.4283,4.4304,4.4312,4.4301,4.4344,4.4352,4.4391,4.4404,4.4411,4.442,4.4405,4.446,4.4465,4.447,4.4489,4.4496,4.4412,4.4412,4.4411,4.4411,0,4.4239,4.4263,4.4283,4.4306,4.432,4.4347,4.435,4.4365,4.4363,4.4367,4.4399,4.441,4.4431,4.4439,4.4436,4.4478,4.4472,4.446,4.444,4.4479,4.4496,4.4503,4.4414,4.4414,4.4413,4.4413,0,0,4.4292,4.4316,4.4323,4.4335,4.4353,4.4371,4.4398,4.442,4.4434,4.4448,4.4471,4.4501,4.4491,4.4502,4.45,4.4519,4.456,4.4506,4.4506,4.4517,4.4609,4.4619,4.4627,4.4555,4.4556,4.4557,4.4609,0,4.4337,4.4385,4.4387,4.443,4.4453,4.4446,4.4469,4.4483,4.4488,4.4508,4.4513,4.4535,4.4519,4.4527,4.4545,4.4551,4.4579,4.4547,4.4577,4.4578,4.4575,4.4636,4.4646,4.4694,4.4615,4.4616,4.4617,0,4.4395,4.4415,4.4462,4.4479,4.4489,4.451,4.4532,4.4551,4.4567,4.4569,4.4583,4.4579,4.4607,4.4585,4.4624,4.4602,4.4614,4.4619,4.4621,4.4625,4.4601,4.4643,4.4709,4.4717,4.4627,4.4627,4.4626,0,4.4432,4.447,4.4504,4.4513,4.4533,4.4549,4.4558,4.4573,4.4587,4.4605,4.4615,4.4635,4.4647,4.4663,4.4665,4.4649,4.4705,4.4683,4.4708,4.4709,4.4721,4.4721,4.4792,4.4727,4.4726,4.4726,4.4726,0,4.4483,4.4513,4.4521,4.4542,4.4575,4.4576,4.4609,4.4616,4.463,4.4652,4.4646,4.4667,4.4667,4.4689,4.469,4.4723,4.4727,4.4731,4.4731,4.4732,4.4732,4.4741,4.4738,4.4728,4.4728,4.4727,4.4727,0,4.453,4.4537,4.4573,4.4591,4.4596,4.462,4.4634,4.4654,4.4659,4.4688,4.4694,4.4702,4.4727,4.4731,4.4759,4.476,4.4801,4.4796,4.4796,4.4796,4.4822,4.482,4.4903,4.4914,4.484,4.484,4.4841,0,4.4563,4.4586,4.4607,4.4622,4.4633,4.4657,4.4672,4.4674,4.469,4.4711,4.4729,4.4754,4.4774,4.4814,4.4822,4.4844,4.4842,4.4869,4.4845,4.4846,4.4844,4.4844,4.4847,4.4874,4.4875,4.4876,4.4876,0,4.4622,4.4624,4.4647,4.4672,4.469,4.4709,4.4726,4.4739,4.4744,4.4762,4.4788,4.4804,4.4835,4.486,4.4882,4.4891,4.4885,4.4884,4.4891,4.4893,4.4893,4.4895,4.481,4.4882,4.4881,4.4881,4.4881,4.488,4.4664,4.4685,4.4704,4.473,4.4744,4.4761,4.4782,4.479,4.4813,4.4839,4.4839,4.4868,4.4885,4.4915,4.4925,4.4948,4.4939,4.4949,4.4952,4.4955,4.4959,4.4888,4.4952,4.4952,4.4952,4.4951,4.4951,0,4.4724,4.4736,4.476,4.4787,4.4807,4.4801,4.482,4.4838,4.4865,4.4881,4.4902,4.4933,4.4958,4.4968,4.4993,4.5009,4.5007,4.5016,4.5015,4.5018,4.4965,4.4957,4.5017,4.5017,4.5017,4.5017,4.5017,4.5017,4.4758,4.4794,4.4799,4.4843,4.4854,4.4884,4.4897,4.4913,4.4926,4.4962,4.4983,4.4991,4.5005,4.5031,4.5053,4.5056,4.5066,4.5076,4.5077,4.5028,4.5021,4.5015,4.5007,4.5078,4.5078,4.5129,4.5129,4.5129]}]]